Regional Weather Roundup
Issued by NWS

Home | Current Version | Previous Version | Graphics & Text | Print | Product List | Glossary On
Versions: 1 2 3 4 5 6 7 8 9 10 11 12 13 14 15 16 17 18 19 20 21 22 23 24 25 26 27 28 29 30 31 32 33 34 35 36 37 38 39 40 41 42 43 44 45 46 47 48 49 50
000
ASUS43 KFSD 271802
RWRSD

WEATHER ROUNDUP FOR SOUTH DAKOTA
NATIONAL WEATHER SERVICE SIOUX FALLS SD
1200 PM CST TUE JAN 27 2015

NOTE: "FAIR" INDICATES FEW OR NO CLOUDS BELOW 12,000 FEET WITH NO
SIGNIFICANT WEATHER AND/OR OBSTRUCTIONS TO VISIBILITY.


SDZ001>005-009-010-012>017-271900-
NORTHWEST AND NORTH CENTRAL SOUTH DAKOTA

CITY           SKY/WX    TMP DP  RH WIND       PRES   REMARKS
BUFFALO          N/A     57  30  35 W6        29.86F
FAITH            N/A     59  30  33 SW9       29.91F
MOBRIDGE       MOSUNNY   43  35  73 S10       29.90F
$$

SDZ012>016-024>037-041>051-057-063-072>074-271900-
SOUTHWEST AND SOUTH CENTRAL SOUTH DAKOTA

CITY           SKY/WX    TMP DP  RH WIND       PRES   REMARKS
RAPID CTY ARPT NOT AVBL
PIERRE         SUNNY     46  34  62 CALM      29.94S
CUSTER         SUNNY     65  20  17 W8        30.07F
ELLSWORTH AFB  SUNNY     69  28  22 CALM      29.96F
PHILIP         SUNNY     62  32  32 W9        29.93F
PINE RIDGE     SUNNY     60  30  32 W7        30.01F
WINNER         FAIR      57  36  45 VRB3      29.95F
$$

SDZ004>011-016>023-039-040-271900-
NORTHEAST SOUTH DAKOTA

CITY           SKY/WX    TMP DP  RH WIND       PRES   REMARKS
ABERDEEN       SUNNY     40  34  79 S16       30.00F
WATERTOWN      SUNNY     36  31  82 S13       30.02F
SISSETON         N/A     29  29 100 S14       30.06F WCI  18
$$

SDZ017-020-022-023-036>040-048>070-271900-
SOUTHEAST SOUTH DAKOTA

CITY           SKY/WX    TMP DP  RH WIND       PRES   REMARKS
SIOUX FALLS    CLOUDY    32  31  96 SE9       30.08S FOG     WCI  24
HURON          SUNNY     41  34  76 S16G23    29.99F
MITCHELL       SUNNY     44  36  73 S20       30.01F
YANKTON        SUNNY     45  36  70 SE13      30.06F
$$

ABBREVIATIONS USED IN REMARKS
   TC - TEMPERATURE IN CELSIUS
  WCI - WIND CHILL INDEX
   HX - HEAT INDEX
  VSB - VISIBILITY



USA.gov is the U.S. government's official web portal to all federal, state and local government web resources and services.